Location: Terre Du Lac
(37.9120°N, 90.6250°W)
Time: 22:31:40
(UTC-06:00)

Hubble Space Telescope - Visible Passes

Search period start: 21 February 2017 00:00
Search period end: 03 March 2017 00:00
Orbit: 538 x 542 km, 28.5° (Epoch: 21 February)

Date Brightness Start Highest point End Pass type
(mag) Time Alt. Az. Time Alt. Az. Time Alt. Az.
24 Feb 3.4 20:06:20 10° SSW 20:06:47 12° SSW 20:06:47 12° SSW visible
25 Feb 3.0 19:56:05 10° SW 19:57:32 16° SSW 19:57:32 16° SSW visible
26 Feb 2.7 19:45:54 10° SW 19:48:14 20° S 19:48:14 20° S visible
27 Feb 2.4 19:35:46 10° SW 19:38:56 21° S 19:38:56 21° S visible
28 Feb 2.4 19:25:41 10° SW 19:28:54 22° S 19:29:36 21° SSE visible
01 Mar 2.5 19:15:38 10° SW 19:18:49 22° S 19:20:16 18° SSE visible
02 Mar 2.6 19:05:37 10° SW 19:08:46 21° S 19:10:57 14° SE visible
